Terminal Aerodrome Forecast
Issued by NWS Pueblo, CO

Home | Current Version | Previous Version | Text Only | Print | Product List | Glossary On
Versions: 1 2 3 4 5 6 7 8 9 10 11 12 13 14 15 16 17 18 19 20 21 22 23 24 25 26 27 28 29 30 31 32 33 34 35 36 37 38 39 40 41 42 43 44 45 46 47 48 49 50
000
FTUS45 KPUB 211124
TAFCOS
TAF
KCOS 211124Z 2112/2212 36006KT P6SM SKC
     FM211900 13009KT P6SM FEW080 SCT130
     FM212200 16010KT P6SM VCTS SCT050CB BKN150
     FM212300 32012KT P6SM VCTS SCT050CB BKN100
      TEMPO 2123/2201 VRB20G40KT 5SM -TSRA BKN030CB
     FM220100 34015G25KT P6SM VCTS SCT050CB BKN100
     FM220400 36010KT P6SM SCT100 BKN200=

USA.gov is the U.S. government's official web portal to all federal, state and local government web resources and services.